When you browse on this site, cookies collect data to enhance your experience and personalize the content and advertising you see.
Visit our Privacy Policy to learn more. By continuing to use the site, you agree to this use of cookies and data.
  • In Deutschland
  • Länderverzeichnis
  • Für 7 Tage
  • Wassertemperatur
  • Wetterkarte
  • Widgets
  • user-avatar
    Anmelden

    Stündliche Wetter Kury

    Heute, 2 Juni, Dienstag

    Zeit Temperatur Niederschläge Wind Luftdruck Luftfeuchtigkeit
    00:00 +9°C° 0.3 mm 3 m/S 753 mmHg 89%
    01:00 +8°C° 0.3 mm 3 m/S 752 mmHg 92%
    02:00 +8°C° 0 mm 3 m/S 752 mmHg 92%
    03:00 +7°C° 0 mm 3 m/S 752 mmHg 93%
    04:00 +7°C° 0 mm 3 m/S 752 mmHg 94%
    05:00 +7°C° 0 mm 4 m/S 752 mmHg 87%
    06:00 +10°C° 0 mm 4 m/S 752 mmHg 80%
    07:00 +10°C° 0 mm 5 m/S 752 mmHg 73%
    08:00 +13°C° 0 mm 6 m/S 752 mmHg 67%
    09:00 +14°C° 0 mm 6 m/S 751 mmHg 62%
    10:00 +15°C° 0 mm 7 m/S 751 mmHg 56%
    11:00 +16°C° 0 mm 7 m/S 751 mmHg 56%
    12:00 +16°C° 0 mm 7 m/S 750 mmHg 55%
    13:00 +17°C° 0 mm 7 m/S 750 mmHg 55%
    14:00 +17°C° 0.2 mm 6 m/S 750 mmHg 58%
    15:00 +16°C° 0.2 mm 6 m/S 749 mmHg 60%
    16:00 +16°C° 0.2 mm 6 m/S 749 mmHg 63%
    17:00 +15°C° 0.2 mm 5 m/S 748 mmHg 67%
    18:00 +14°C° 0.2 mm 4 m/S 748 mmHg 72%
    19:00 +13°C° 0.2 mm 4 m/S 748 mmHg 76%
    20:00 +12°C° 0 mm 3 m/S 748 mmHg 81%
    21:00 +10°C° 0 mm 3 m/S 748 mmHg 85%
    22:00 +9°C° 0 mm 3 m/S 748 mmHg 89%
    23:00 +9°C° 0 mm 3 m/S 747 mmHg 90%

    Morgen, 3 Juni, Mittwoch

    Zeit Temperatur Niederschläge Wind Luftdruck Luftfeuchtigkeit
    00:00 +8°C° 0 mm 3 m/S 747 mmHg 92%
    01:00 +8°C° 0 mm 3 m/S 747 mmHg 93%
    02:00 +7°C° 0 mm 3 m/S 747 mmHg 93%
    03:00 +7°C° 0 mm 3 m/S 746 mmHg 93%
    04:00 +7°C° 0 mm 3 m/S 746 mmHg 92%
    05:00 +8°C° 0.1 mm 3 m/S 746 mmHg 89%
    06:00 +9°C° 0.1 mm 3 m/S 746 mmHg 85%
    07:00 +11°C° 0.1 mm 4 m/S 746 mmHg 82%
    08:00 +11°C° 0.1 mm 4 m/S 746 mmHg 82%
    09:00 +11°C° 0.1 mm 4 m/S 745 mmHg 82%
    10:00 +11°C° 0.1 mm 4 m/S 745 mmHg 82%
    11:00 +13°C° 0.2 mm 4 m/S 745 mmHg 78%
    12:00 +14°C° 0.2 mm 4 m/S 745 mmHg 73%
    13:00 +15°C° 0.2 mm 5 m/S 745 mmHg 68%
    14:00 +15°C° 0.3 mm 4 m/S 744 mmHg 68%
    15:00 +15°C° 0.3 mm 4 m/S 744 mmHg 68%
    16:00 +15°C° 0.3 mm 4 m/S 743 mmHg 68%
    17:00 +15°C° 0.1 mm 4 m/S 743 mmHg 73%
    18:00 +14°C° 0.1 mm 3 m/S 743 mmHg 78%
    19:00 +13°C° 0.1 mm 3 m/S 743 mmHg 83%
    20:00 +13°C° 0 mm 2 m/S 743 mmHg 86%
    21:00 +10°C° 0 mm 2 m/S 743 mmHg 89%
    22:00 +9°C° 0 mm 2 m/S 743 mmHg 92%
    23:00 +9°C° 0 mm 2 m/S 743 mmHg 93%

    übermorgen, 4 Juni, Donnerstag

    Zeit Temperatur Niederschläge Wind Luftdruck Luftfeuchtigkeit
    00:00 +9°C° 0 mm 2 m/S 743 mmHg 93%
    01:00 +8°C° 0 mm 2 m/S 743 mmHg 94%
    02:00 +8°C° 0 mm 2 m/S 742 mmHg 94%
    03:00 +9°C° 0 mm 1 m/S 742 mmHg 94%
    04:00 +9°C° 0 mm 1 m/S 742 mmHg 94%
    05:00 +10°C° 0 mm 1 m/S 742 mmHg 90%
    06:00 +12°C° 0 mm 2 m/S 742 mmHg 85%
    07:00 +13°C° 0 mm 2 m/S 742 mmHg 80%
    08:00 +15°C° 0.1 mm 2 m/S 742 mmHg 73%
    09:00 +17°C° 0.1 mm 2 m/S 741 mmHg 67%
    10:00 +18°C° 0.1 mm 2 m/S 741 mmHg 60%
    11:00 +19°C° 0.4 mm 2 m/S 741 mmHg 59%
    12:00 +19°C° 0.4 mm 2 m/S 741 mmHg 58%
    13:00 +20°C° 0.4 mm 2 m/S 741 mmHg 58%
    14:00 +20°C° 0.2 mm 2 m/S 740 mmHg 57%
    15:00 +20°C° 0.2 mm 2 m/S 740 mmHg 56%
    16:00 +20°C° 0.2 mm 2 m/S 740 mmHg 55%
    17:00 +19°C° 0 mm 2 m/S 740 mmHg 60%
    18:00 +19°C° 0 mm 1 m/S 740 mmHg 66%
    19:00 +18°C° 0 mm 1 m/S 740 mmHg 72%
    20:00 +15°C° 0 mm 2 m/S 740 mmHg 75%
    21:00 +14°C° 0 mm 2 m/S 740 mmHg 79%
    22:00 +12°C° 0 mm 3 m/S 740 mmHg 83%
    23:00 +12°C° 0 mm 3 m/S 740 mmHg 85%

    5 Juni, Freitag

    Zeit Temperatur Niederschläge Wind Luftdruck Luftfeuchtigkeit
    00:00 +11°C° 0 mm 3 m/S 740 mmHg 86%
    01:00 +11°C° 0 mm 3 m/S 739 mmHg 88%
    02:00 +11°C° 0 mm 3 m/S 739 mmHg 88%
    03:00 +11°C° 0 mm 3 m/S 739 mmHg 88%
    04:00 +11°C° 0 mm 4 m/S 738 mmHg 88%
    05:00 +12°C° 0 mm 4 m/S 738 mmHg 84%
    06:00 +14°C° 0 mm 5 m/S 738 mmHg 81%
    07:00 +16°C° 0 mm 6 m/S 738 mmHg 78%
    08:00 +17°C° 0 mm 6 m/S 738 mmHg 77%
    09:00 +19°C° 0 mm 6 m/S 738 mmHg 76%
    10:00 +20°C° 0 mm 6 m/S 738 mmHg 76%
    11:00 +20°C° 0 mm 5 m/S 738 mmHg 74%
    12:00 +21°C° 0 mm 5 m/S 737 mmHg 73%
    13:00 +21°C° 0 mm 5 m/S 737 mmHg 72%
    14:00 +22°C° 0.4 mm 5 m/S 737 mmHg 72%
    15:00 +22°C° 0.4 mm 5 m/S 737 mmHg 72%
    16:00 +23°C° 0.4 mm 5 m/S 737 mmHg 71%
    17:00 +22°C° 0.8 mm 4 m/S 737 mmHg 76%
    18:00 +21°C° 0.8 mm 3 m/S 737 mmHg 81%
    19:00 +19°C° 0.8 mm 3 m/S 737 mmHg 86%
    20:00 +18°C° 0.5 mm 3 m/S 738 mmHg 88%
    21:00 +17°C° 0.5 mm 3 m/S 738 mmHg 90%
    22:00 +17°C° 0.5 mm 3 m/S 738 mmHg 93%
    23:00 +16°C° 0.1 mm 3 m/S 739 mmHg 93%

    6 Juni, Samstag

    Zeit Temperatur Niederschläge Wind Luftdruck Luftfeuchtigkeit
    00:00 +14°C° 0.1 mm 3 m/S 739 mmHg 94%
    01:00 +14°C° 0.1 mm 4 m/S 739 mmHg 95%
    02:00 +13°C° 1.3 mm 4 m/S 739 mmHg 95%
    03:00 +12°C° 1.3 mm 5 m/S 740 mmHg 95%
    04:00 +11°C° 1.3 mm 6 m/S 740 mmHg 95%
    05:00 +10°C° 1.1 mm 6 m/S 741 mmHg 94%
    06:00 +10°C° 1.1 mm 6 m/S 741 mmHg 93%
    07:00 +10°C° 1.1 mm 5 m/S 741 mmHg 92%
    08:00 +12°C° 0.1 mm 5 m/S 742 mmHg 88%
    09:00 +12°C° 0.1 mm 5 m/S 742 mmHg 84%
    10:00 +13°C° 0.1 mm 4 m/S 743 mmHg 80%
    11:00 +14°C° 0.1 mm 4 m/S 743 mmHg 74%
    12:00 +17°C° 0.1 mm 4 m/S 743 mmHg 69%
    13:00 +18°C° 0.1 mm 4 m/S 743 mmHg 63%
    14:00 +18°C° 0.1 mm 3 m/S 744 mmHg 62%
    15:00 +19°C° 0.1 mm 3 m/S 744 mmHg 60%
    16:00 +19°C° 0.1 mm 3 m/S 744 mmHg 59%
    17:00 +18°C° 0.1 mm 3 m/S 744 mmHg 65%
    18:00 +17°C° 0.1 mm 2 m/S 745 mmHg 71%
    19:00 +16°C° 0.1 mm 2 m/S 745 mmHg 77%
    20:00 +15°C° 0 mm 2 m/S 745 mmHg 79%
    21:00 +14°C° 0 mm 2 m/S 745 mmHg 82%
    22:00 +13°C° 0 mm 2 m/S 746 mmHg 84%
    23:00 +12°C° 0 mm 2 m/S 746 mmHg 85%

    7 Juni, Sonntag

    Zeit Temperatur Niederschläge Wind Luftdruck Luftfeuchtigkeit
    00:00 +12°C° 0 mm 2 m/S 746 mmHg 86%
    01:00 +10°C° 0 mm 2 m/S 746 mmHg 87%
    02:00 +10°C° 0 mm 2 m/S 746 mmHg 87%
    03:00 +11°C° 0 mm 1 m/S 746 mmHg 87%
    04:00 +11°C° 0 mm 1 m/S 746 mmHg 87%
    05:00 +12°C° 0 mm 2 m/S 746 mmHg 82%
    06:00 +14°C° 0 mm 2 m/S 747 mmHg 77%
    07:00 +16°C° 0 mm 2 m/S 747 mmHg 72%
    08:00 +17°C° 0 mm 2 m/S 747 mmHg 66%
    09:00 +19°C° 0 mm 3 m/S 747 mmHg 61%
    10:00 +20°C° 0 mm 3 m/S 747 mmHg 55%
    11:00 +21°C° 0 mm 3 m/S 747 mmHg 53%
    12:00 +21°C° 0 mm 3 m/S 747 mmHg 50%
    13:00 +22°C° 0 mm 3 m/S 747 mmHg 48%
    14:00 +22°C° 0 mm 3 m/S 747 mmHg 50%
    15:00 +22°C° 0 mm 3 m/S 747 mmHg 51%
    16:00 +23°C° 0 mm 2 m/S 747 mmHg 53%
    17:00 +21°C° 0 mm 2 m/S 747 mmHg 59%
    18:00 +20°C° 0 mm 2 m/S 747 mmHg 66%
    19:00 +18°C° 0 mm 2 m/S 747 mmHg 72%
    20:00 +18°C° 0 mm 2 m/S 748 mmHg 75%
    21:00 +17°C° 0 mm 2 m/S 748 mmHg 77%
    22:00 +16°C° 0 mm 2 m/S 748 mmHg 80%
    23:00 +16°C° 0.1 mm 2 m/S 748 mmHg 81%
    Mehr zeigen